{"data":{"norad_id":67130,"epoch":"2026-09-20T09:19:57.405504Z","epoch_age_seconds":88067,"freshness":"FRESH","line1":"1 67130U 25299AE  26263.38885886  .00010025  00000+0  37322-3 0  9994","line2":"2 67130  43.0044 149.3716 0000757 267.9209  92.1555 15.27590261 42897","mean_motion":15.27590261,"eccentricity":7.57e-5,"inclination_deg":43.0044,"raan_deg":149.3716,"arg_perigee_deg":267.9209,"mean_anomaly_deg":92.1555,"bstar":0.00037322,"rev_number":4289,"period_min":94.266115513026,"perigee_km":482.49898162467,"apogee_km":483.53776054786,"semimajor_km":6861.1553710863,"source":"CELESTRAK","updated_at":"2026-09-21T09:00:36.109629Z"}}